Time,TemperatureF,DewpointF,PressureIn,WindDirection,WindDirectionDegrees,WindSpeedMPH,WindSpeedGustMPH,Humidity,HourlyPrecipIn,Conditions,Clouds,dailyrainin,SoftwareType,DateUTC
2013-12-17 00:02:00,-999.0,-99.9,-100.00,South,173,25.0,29.0,-999,-99.99,,,-99.99,,2013-12-17 05:02:00,
2013-12-17 00:22:00,-999.0,-99.9,-100.00,South,177,23.0,29.0,-999,-99.99,,,-99.99,,2013-12-17 05:22:00,
2013-12-17 00:33:00,-999.0,-99.9,-100.00,South,175,26.0,30.0,-999,-99.99,,,-99.99,,2013-12-17 05:33:00,
2013-12-17 00:42:00,-999.0,-99.9,-100.00,South,180,26.0,29.0,-999,-99.99,,,-99.99,,2013-12-17 05:42:00,
2013-12-17 00:53:00,-999.0,-99.9,-100.00,South,180,26.0,31.0,-999,-99.99,,,-99.99,,2013-12-17 05:53:00,
2013-12-17 01:03:00,-999.0,-99.9,-100.00,South,180,28.0,33.0,-999,-99.99,,,-99.99,,2013-12-17 06:03:00,
2013-12-17 01:11:00,-999.0,-99.9,-100.00,South,175,23.0,33.0,-999,-99.99,,,-99.99,,2013-12-17 06:11:00,
2013-12-17 01:22:00,-999.0,-99.9,-100.00,South,181,23.0,32.0,-999,-99.99,,,-99.99,,2013-12-17 06:22:00,
2013-12-17 01:32:00,-999.0,-99.9,-100.00,South,180,25.0,33.0,-999,-99.99,,,-99.99,,2013-12-17 06:32:00,
2013-12-17 01:52:00,-999.0,-99.9,-100.00,South,184,22.0,33.0,-999,-99.99,,,-99.99,,2013-12-17 06:52:00,
2013-12-17 02:11:00,-999.0,-99.9,-100.00,South,182,23.0,34.0,-999,-99.99,,,-99.99,,2013-12-17 07:11:00,
2013-12-17 02:22:00,-999.0,-99.9,-100.00,South,186,21.0,27.0,-999,-99.99,,,-99.99,,2013-12-17 07:22:00,
2013-12-17 02:32:00,-999.0,-99.9,-100.00,South,186,21.0,31.0,-999,-99.99,,,-99.99,,2013-12-17 07:32:00,
2013-12-17 02:42:00,-999.0,-99.9,-100.00,South,189,19.0,28.0,-999,-99.99,,,-99.99,,2013-12-17 07:42:00,
2013-12-17 02:52:00,-999.0,-99.9,-100.00,SSW,197,15.0,28.0,-999,-99.99,,,-99.99,,2013-12-17 07:52:00,
2013-12-17 03:12:00,-999.0,-99.9,-100.00,South,188,19.0,26.0,-999,-99.99,,,-99.99,,2013-12-17 08:12:00,
2013-12-17 03:22:00,-999.0,-99.9,-100.00,SSW,196,18.0,25.0,-999,-99.99,,,-99.99,,2013-12-17 08:22:00,
2013-12-17 03:32:00,-999.0,-99.9,-100.00,SSW,198,16.0,21.0,-999,-99.99,,,-99.99,,2013-12-17 08:32:00,
2013-12-17 03:52:00,-999.0,-99.9,-100.00,SSW,195,15.0,20.0,-999,-99.99,,,-99.99,,2013-12-17 08:52:00,
2013-12-17 04:11:00,-999.0,-99.9,-100.00,SSW,194,15.0,23.0,-999,-99.99,,,-99.99,,2013-12-17 09:11:00,
2013-12-17 04:22:00,-999.0,-99.9,-100.00,SSW,198,16.0,22.0,-999,-99.99,,,-99.99,,2013-12-17 09:22:00,
2013-12-17 04:33:00,-999.0,-99.9,-100.00,SSW,204,13.0,22.0,-999,-99.99,,,-99.99,,2013-12-17 09:33:00,
2013-12-17 04:43:00,-999.0,-99.9,-100.00,SSW,203,13.0,21.0,-999,-99.99,,,-99.99,,2013-12-17 09:43:00,
2013-12-17 04:54:00,-999.0,-99.9,-100.00,SSW,200,10.0,18.0,-999,-99.99,,,-99.99,,2013-12-17 09:54:00,
2013-12-17 05:03:00,-999.0,-99.9,-100.00,SSW,205,12.0,16.0,-999,-99.99,,,-99.99,,2013-12-17 10:03:00,
2013-12-17 05:23:00,-999.0,-99.9,-100.00,SSW,204,9.0,15.0,-999,-99.99,,,-99.99,,2013-12-17 10:23:00,
2013-12-17 05:43:00,-999.0,-99.9,-100.00,SW,217,6.0,16.0,-999,-99.99,,,-99.99,,2013-12-17 10:43:00,
2013-12-17 05:53:00,-999.0,-99.9,-100.00,SW,216,7.0,13.0,-999,-99.99,,,-99.99,,2013-12-17 10:53:00,
2013-12-17 06:02:00,-999.0,-99.9,-100.00,SW,224,9.0,15.0,-999,-99.99,,,-99.99,,2013-12-17 11:02:00,
2013-12-17 06:22:00,-999.0,-99.9,-100.00,SW,222,8.0,11.0,-999,-99.99,,,-99.99,,2013-12-17 11:22:00,
2013-12-17 06:34:00,-999.0,-99.9,-100.00,SW,217,4.0,11.0,-999,-99.99,,,-99.99,,2013-12-17 11:34:00,
2013-12-17 06:42:00,-999.0,-99.9,-100.00,SW,221,5.0,16.0,-999,-99.99,,,-99.99,,2013-12-17 11:42:00,
2013-12-17 06:52:00,-999.0,-99.9,-100.00,SW,214,4.0,11.0,-999,-99.99,,,-99.99,,2013-12-17 11:52:00,
2013-12-17 07:02:00,-999.0,-99.9,-100.00,SW,221,7.0,13.0,-999,-99.99,,,-99.99,,2013-12-17 12:02:00,
2013-12-17 07:22:00,-999.0,-99.9,-100.00,SW,232,9.0,14.0,-999,-99.99,,,-99.99,,2013-12-17 12:22:00,
2013-12-17 07:52:00,-999.0,-99.9,-100.00,WSW,243,9.0,13.0,-999,-99.99,,,-99.99,,2013-12-17 12:52:00,
2013-12-17 08:22:00,-999.0,-99.9,-100.00,West,264,5.0,9.0,-999,-99.99,,,-99.99,,2013-12-17 13:22:00,
2013-12-17 08:35:00,-999.0,-99.9,-100.00,WNW,295,3.0,5.0,-999,-99.99,,,-99.99,,2013-12-17 13:35:00,
2013-12-17 08:52:00,-999.0,-99.9,-100.00,NW,323,3.0,5.0,-999,-99.99,,,-99.99,,2013-12-17 13:52:00,
2013-12-17 09:02:00,-999.0,-99.9,-100.00,NW,314,3.0,5.0,-999,-99.99,,,-99.99,,2013-12-17 14:02:00,
2013-12-17 09:22:00,-999.0,-99.9,-100.00,NW,323,2.0,4.0,-999,-99.99,,,-99.99,,2013-12-17 14:22:00,
2013-12-17 09:52:00,-999.0,-99.9,-100.00,NNW,339,4.0,6.0,-999,-99.99,,,-99.99,,2013-12-17 14:52:00,
2013-12-17 10:02:00,-999.0,-99.9,-100.00,NNW,334,5.0,8.0,-999,-99.99,,,-99.99,,2013-12-17 15:02:00,
2013-12-17 10:22:00,-999.0,-99.9,-100.00,NNW,329,5.0,7.0,-999,-99.99,,,-99.99,,2013-12-17 15:22:00,
2013-12-17 10:34:00,-999.0,-99.9,-100.00,NNW,338,6.0,9.0,-999,-99.99,,,-99.99,,2013-12-17 15:34:00,
2013-12-17 11:03:00,-999.0,-99.9,-100.00,NNE,18,6.0,9.0,-999,-99.99,,,-99.99,,2013-12-17 16:03:00,
2013-12-17 11:13:00,-999.0,-99.9,-100.00,NNE,26,7.0,9.0,-999,-99.99,,,-99.99,,2013-12-17 16:13:00,
2013-12-17 11:23:00,18.0,-99.9,29.79,NNE,25,7.0,9.0,-999,-99.99,,,-99.99,,2013-12-17 16:23:00,
2013-12-17 11:52:00,-999.0,-99.9,-100.00,NE,37,7.0,9.0,-999,-99.99,,,-99.99,,2013-12-17 16:52:00,
2013-12-17 12:24:00,-999.0,-99.9,-100.00,NNE,25,6.0,7.0,-999,-99.99,,,-99.99,,2013-12-17 17:24:00,
2013-12-17 12:33:00,-999.0,-99.9,-100.00,NNE,28,6.0,8.0,-999,-99.99,,,-99.99,,2013-12-17 17:33:00,
2013-12-17 12:43:00,-999.0,-99.9,-100.00,NNE,14,6.0,9.0,-999,-99.99,,,-99.99,,2013-12-17 17:43:00,
2013-12-17 12:53:00,-999.0,-99.9,-100.00,NNE,24,6.0,8.0,-999,-99.99,,,-99.99,,2013-12-17 17:53:00,
2013-12-17 14:02:00,-999.0,-99.9,-100.00,NNE,27,8.0,9.0,-999,-99.99,,,-99.99,,2013-12-17 19:02:00,
2013-12-17 14:11:00,-999.0,-99.9,-100.00,NNE,30,7.0,8.0,-999,-99.99,,,-99.99,,2013-12-17 19:11:00,
2013-12-17 14:22:00,-999.0,-99.9,-100.00,NNE,32,6.0,8.0,-999,-99.99,,,-99.99,,2013-12-17 19:22:00,
2013-12-17 14:42:00,-999.0,-99.9,-100.00,NNE,22,7.0,9.0,-999,-99.99,,,-99.99,,2013-12-17 19:42:00,
2013-12-17 14:52:00,-999.0,-99.9,-100.00,NE,41,7.0,9.0,-999,-99.99,,,-99.99,,2013-12-17 19:52:00,
2013-12-17 15:22:00,-999.0,-99.9,-100.00,NE,40,7.0,9.0,-999,-99.99,,,-99.99,,2013-12-17 20:22:00,
2013-12-17 15:42:00,-999.0,-99.9,-100.00,NE,39,6.0,8.0,-999,-99.99,,,-99.99,,2013-12-17 20:42:00,
2013-12-17 15:52:00,-999.0,-99.9,-100.00,NNE,33,6.0,8.0,-999,-99.99,,,-99.99,,2013-12-17 20:52:00,
2013-12-17 16:02:00,-999.0,-99.9,-100.00,NE,38,6.0,7.0,-999,-99.99,,,-99.99,,2013-12-17 21:02:00,
2013-12-17 16:11:00,-999.0,-99.9,-100.00,NNE,31,6.0,6.0,-999,-99.99,,,-99.99,,2013-12-17 21:11:00,
2013-12-17 16:22:00,-999.0,-99.9,-100.00,NE,35,5.0,7.0,-999,-99.99,,,-99.99,,2013-12-17 21:22:00,
2013-12-17 16:33:00,-999.0,-99.9,-100.00,NE,45,5.0,7.0,-999,-99.99,,,-99.99,,2013-12-17 21:33:00,
2013-12-17 16:53:00,-999.0,-99.9,-100.00,ENE,70,3.0,6.0,-999,-99.99,,,-99.99,,2013-12-17 21:53:00,
2013-12-17 17:03:00,-999.0,-99.9,-100.00,North,11,4.0,5.0,-999,-99.99,,,-99.99,,2013-12-17 22:03:00,
2013-12-17 17:23:00,-999.0,-99.9,-100.00,ENE,67,4.0,6.0,-999,-99.99,,,-99.99,,2013-12-17 22:23:00,
2013-12-17 17:43:00,-999.0,-99.9,-100.00,ENE,58,3.0,4.0,-999,-99.99,,,-99.99,,2013-12-17 22:43:00,
2013-12-17 17:53:00,-999.0,-99.9,-100.00,East,92,3.0,3.0,-999,-99.99,,,-99.99,,2013-12-17 22:53:00,
2013-12-17 18:03:00,-999.0,-99.9,-100.00,East,94,4.0,5.0,-999,-99.99,,,-99.99,,2013-12-17 23:03:00,
2013-12-17 18:22:00,-999.0,-99.9,-100.00,North,349,4.0,6.0,-999,-99.99,,,-99.99,,2013-12-17 23:22:00,
2013-12-17 18:33:00,-999.0,-99.9,-100.00,North,6,6.0,6.0,-999,-99.99,,,-99.99,,2013-12-17 23:33:00,
2013-12-17 18:53:00,-999.0,-99.9,-100.00,NNW,343,7.0,9.0,-999,-99.99,,,-99.99,,2013-12-17 23:53:00,
2013-12-17 19:02:00,-999.0,-99.9,-100.00,North,-999,8.0,9.0,-999,-99.99,,,-99.99,,2013-12-18 00:02:00,
2013-12-17 19:12:00,-999.0,-99.9,-100.00,North,357,7.0,8.0,-999,-99.99,,,-99.99,,2013-12-18 00:12:00,
2013-12-17 19:22:00,-999.0,-99.9,-100.00,North,355,6.0,8.0,-999,-99.99,,,-99.99,,2013-12-18 00:22:00,
2013-12-17 19:32:00,-999.0,-99.9,-100.00,NNW,346,6.0,7.0,-999,-99.99,,,-99.99,,2013-12-18 00:32:00,
2013-12-17 19:52:00,-999.0,-99.9,-100.00,NNE,32,4.0,6.0,-999,-99.99,,,-99.99,,2013-12-18 00:52:00,
2013-12-17 20:32:00,-999.0,-99.9,-100.00,North,5,3.0,5.0,-999,-99.99,,,-99.99,,2013-12-18 01:32:00,
2013-12-17 20:42:00,-999.0,-99.9,-100.00,NW,318,2.0,3.0,-999,-99.99,,,-99.99,,2013-12-18 01:42:00,
2013-12-17 20:52:00,-999.0,-99.9,-100.00,NNW,338,2.0,3.0,-999,-99.99,,,-99.99,,2013-12-18 01:52:00,
2013-12-17 21:01:00,-999.0,-99.9,-100.00,WNW,297,1.0,2.0,-999,-99.99,,,-99.99,,2013-12-18 02:01:00,
2013-12-17 21:11:00,-999.0,-99.9,-100.00,NW,313,1.0,2.0,-999,-99.99,,,-99.99,,2013-12-18 02:11:00,
2013-12-17 21:22:00,-999.0,-99.9,-100.00,NW,309,1.0,3.0,-999,-99.99,,,-99.99,,2013-12-18 02:22:00,
2013-12-17 21:32:00,-999.0,-99.9,-100.00,West,268,4.0,8.0,-999,-99.99,,,-99.99,,2013-12-18 02:32:00,
2013-12-17 21:42:00,-999.0,-99.9,-100.00,West,261,4.0,6.0,-999,-99.99,,,-99.99,,2013-12-18 02:42:00,
2013-12-17 22:02:00,-999.0,-99.9,-100.00,WSW,245,3.0,6.0,-999,-99.99,,,-99.99,,2013-12-18 03:02:00,
2013-12-17 22:22:00,-999.0,-99.9,-100.00,West,266,4.0,6.0,-999,-99.99,,,-99.99,,2013-12-18 03:22:00,
2013-12-17 22:54:00,-999.0,-99.9,-100.00,West,264,8.0,11.0,-999,-99.99,,,-99.99,,2013-12-18 03:54:00,
2013-12-17 23:04:00,-999.0,-99.9,-100.00,West,264,7.0,11.0,-999,-99.99,,,-99.99,,2013-12-18 04:04:00,
2013-12-17 23:23:00,-999.0,-99.9,-100.00,West,262,7.0,10.0,-999,-99.99,,,-99.99,,2013-12-18 04:23:00,
2013-12-17 23:43:00,-999.0,-99.9,-100.00,West,265,7.0,12.0,-999,-99.99,,,-99.99,,2013-12-18 04:43:00,
2013-12-17 23:53:00,-999.0,-99.9,-100.00,WNW,288,5.0,11.0,-999,-99.99,,,-99.99,,2013-12-18 04:53:00,